,,Stat6,,Stat2,,Stat8,,Stat9,,Stat10,,Wind1,,Wind1,
time,status,PA1M_AVG,status,PR1M_SUM,status,RH1M_AVG,status,SR1M_AVG,status,TA1M_AVG,status,W1dAve1m,status,W1sAve1m,
2007-07-02, 00:00:00,VALID,917.633,VALID,0,VALID,100,VALID,0,VALID,18.8683,VALID,162,VALID,1.1059,
2007-07-02, 00:01:00,VALID,917.635,VALID,0,VALID,100,VALID,0,VALID,18.8883,VALID,158,VALID,1.19159,
2007-07-02, 00:02:00,VALID,917.624,VALID,0,VALID,100,VALID,0,VALID,18.8913,VALID,158,VALID,1.02344,
2007-07-02, 00:03:00,VALID,917.613,VALID,0,VALID,100,VALID,-0.0169808,VALID,18.9045,VALID,154,VALID,0.743376,
2007-07-02, 00:04:00,VALID,917.608,VALID,0,VALID,100,VALID,0,VALID,18.8653,VALID,151,VALID,0.703125,
2007-07-02, 00:05:00,VALID,917.585,VALID,0,VALID,100,VALID,-0.0169808,VALID,18.8072,VALID,146,VALID,0.696875,
2007-07-02, 00:06:00,VALID,917.562,VALID,0,VALID,100,VALID,0,VALID,18.8072,VALID,145,VALID,0.51048,
2007-07-02, 00:07:00,VALID,917.561,VALID,0,VALID,99.9509,VALID,0,VALID,18.7326,VALID,145,VALID,0.0699219,
2007-07-02, 00:08:00,VALID,917.534,VALID,0,VALID,99.8566,VALID,-0.0169808,VALID,18.6281,VALID,145,VALID,0,
2007-07-02, 00:09:00,VALID,917.525,VALID,0,VALID,100,VALID,0,VALID,18.6091,VALID,145,VALID,0,
2007-07-02, 00:10:00,VALID,917.503,VALID,0,VALID,100,VALID,-0.0339617,VALID,18.6023,VALID,145,VALID,0,
2007-07-02, 00:11:00,VALID,917.467,VALID,0,VALID,100,VALID,0,VALID,18.5931,VALID,145,VALID,0,
2007-07-02, 00:12:00,VALID,917.436,VALID,0,VALID,100,VALID,0,VALID,18.5345,VALID,145,VALID,0.0350654,
2007-07-02, 00:13:00,VALID,917.386,VALID,0,VALID,100,VALID,0,VALID,18.5542,VALID,145,VALID,0.216947,
2007-07-02, 00:14:00,VALID,917.363,VALID,0,VALID,100,VALID,-0.0169808,VALID,18.5078,VALID,145,VALID,0.292333,
2007-07-02, 00:15:00,VALID,917.332,VALID,0,VALID,100,VALID,0,VALID,18.4856,VALID,145,VALID,0.103609,
2007-07-02, 00:16:00,VALID,917.308,VALID,0,VALID,100,VALID,-0.0339617,VALID,18.4793,VALID,145,VALID,0.235677,
2007-07-02, 00:17:00,VALID,917.301,VALID,0,VALID,100,VALID,-0.0169808,VALID,18.4559,VALID,145,VALID,0.250182,
2007-07-02, 00:18:00,VALID,917.291,VALID,0,VALID,100,VALID,0.0169808,VALID,18.4657,VALID,145,VALID,0.0699405,
2007-07-02, 00:19:00,VALID,917.273,VALID,0,VALID,100,VALID,-0.0169808,VALID,18.4624,VALID,145,VALID,0,
2007-07-02, 00:20:00,VALID,917.262,VALID,0,VALID,100,VALID,0,VALID,18.4796,VALID,145,VALID,0,
2007-07-02, 00:21:00,VALID,917.253,VALID,0,VALID,100,VALID,-0.0849042,VALID,18.4902,VALID,145,VALID,0,
2007-07-02, 00:22:00,VALID,917.249,VALID,0,VALID,100,VALID,-0.0849042,VALID,18.4506,VALID,145,VALID,0,
2007-07-02, 00:23:00,VALID,917.231,VALID,0,VALID,100,VALID,-0.101885,VALID,18.3994,VALID,145,VALID,0,
2007-07-02, 00:24:00,VALID,917.224,VALID,0,VALID,100,VALID,-0.101885,VALID,18.3707,VALID,145,VALID,0,
2007-07-02, 00:25:00,VALID,917.217,VALID,0,VALID,100,VALID,-0.135847,VALID,18.3413,VALID,145,VALID,0.329459,
2007-07-02, 00:26:00,VALID,917.201,VALID,0,VALID,100,VALID,-0.118866,VALID,18.2794,VALID,145,VALID,0.841751,
2007-07-02, 00:27:00,VALID,917.177,VALID,0,VALID,100,VALID,-0.0849042,VALID,18.25,VALID,148,VALID,1.06901,
2007-07-02, 00:28:00,VALID,917.186,VALID,0,VALID,100,VALID,-0.101885,VALID,18.2757,VALID,158,VALID,1.11465,
2007-07-02, 00:29:00,VALID,917.182,VALID,0,VALID,100,VALID,-0.0849042,VALID,18.3149,VALID,153,VALID,1.27344,
2007-07-02, 00:30:00,VALID,917.203,VALID,0,VALID,100,VALID,0,VALID,18.3037,VALID,151,VALID,1.27307,
2007-07-02, 00:31:00,VALID,917.197,VALID,0,VALID,100,VALID,0.0169808,VALID,18.2715,VALID,149,VALID,1.13642,
2007-07-02, 00:32:00,VALID,917.203,VALID,0,VALID,100,VALID,-0.0509425,VALID,18.2067,VALID,144,VALID,1.0565,
2007-07-02, 00:33:00,VALID,917.191,VALID,0,VALID,100,VALID,0,VALID,18.1641,VALID,150,VALID,1.03367,
2007-07-02, 00:34:00,VALID,917.18,VALID,0,VALID,100,VALID,-0.0339617,VALID,18.1647,VALID,145,VALID,1.01656,
2007-07-02, 00:35:00,VALID,917.178,VALID,0,VALID,100,VALID,0.0169808,VALID,18.1673,VALID,148,VALID,1.16951,
2007-07-02, 00:36:00,VALID,917.159,VALID,0,VALID,100,VALID,0,VALID,18.187,VALID,151,VALID,1.11909,
2007-07-02, 00:37:00,VALID,917.128,VALID,0,VALID,100,VALID,0.0169808,VALID,18.1805,VALID,152,VALID,1.10537,
2007-07-02, 00:38:00,VALID,917.111,VALID,0,VALID,100,VALID,0,VALID,18.1742,VALID,154,VALID,1.19727,
2007-07-02, 00:39:00,VALID,917.085,VALID,0,VALID,100,VALID,0,VALID,18.1641,VALID,157,VALID,1.15606,
2007-07-02, 00:40:00,VALID,917.072,VALID,0,VALID,100,VALID,0,VALID,18.1576,VALID,157,VALID,1.13707,
2007-07-02, 00:41:00,VALID,917.059,VALID,0,VALID,100,VALID,-0.0169808,VALID,18.1548,VALID,156,VALID,1.10671,
2007-07-02, 00:42:00,VALID,917.039,VALID,0,VALID,100,VALID,-0.0169808,VALID,18.1349,VALID,156,VALID,1.15252,
2007-07-02, 00:43:00,VALID,917.011,VALID,0,VALID,100,VALID,0,VALID,18.1129,VALID,155,VALID,1.00838,
2007-07-02, 00:44:00,VALID,916.994,VALID,0,VALID,100,VALID,-0.0169808,VALID,18.083,VALID,152,VALID,1.01024,
2007-07-02, 00:45:00,VALID,916.965,VALID,0,VALID,100,VALID,0.0169808,VALID,18.0705,VALID,148,VALID,0.895952,
2007-07-02, 00:46:00,VALID,916.945,VALID,0,VALID,100,VALID,0,VALID,18.0339,VALID,135,VALID,1.27586,
2007-07-02, 00:47:00,VALID,916.937,VALID,0,VALID,100,VALID,0,VALID,18.0413,VALID,127,VALID,1.0943,
2007-07-02, 00:48:00,VALID,916.937,VALID,0,VALID,100,VALID,-0.0169808,VALID,17.9982,VALID,131,VALID,1.08507,
2007-07-02, 00:49:00,VALID,916.934,VALID,0,VALID,100,VALID,0.0169808,VALID,18.0184,VALID,131,VALID,0.940874,
2007-07-02, 00:50:00,VALID,916.926,VALID,0,VALID,100,VALID,-0.0169808,VALID,18.0285,VALID,136,VALID,1.00418,
2007-07-02, 00:51:00,VALID,916.914,VALID,0,VALID,100,VALID,-0.0169808,VALID,18.0149,VALID,147,VALID,1.0992,
2007-07-02, 00:52:00,VALID,916.912,VALID,0,VALID,100,VALID,-0.0169808,VALID,18.0186,VALID,146,VALID,1.16611,
2007-07-02, 00:53:00,VALID,916.899,VALID,0,VALID,100,VALID,0.0169808,VALID,18.0186,VALID,143,VALID,1.02305,
2007-07-02, 00:54:00,VALID,916.891,VALID,0,VALID,100,VALID,0.0169808,VALID,18.0181,VALID,141,VALID,0.936738,
2007-07-02, 00:55:00,VALID,916.879,VALID,0,VALID,100,VALID,-0.0169808,VALID,18.0343,VALID,150,VALID,0.999628,
2007-07-02, 00:56:00,VALID,916.877,VALID,0,VALID,100,VALID,0,VALID,18.0441,VALID,148,VALID,1.11354,
2007-07-02, 00:57:00,VALID,916.861,VALID,0,VALID,100,VALID,0,VALID,18.0408,VALID,147,VALID,1.17628,
2007-07-02, 00:58:00,VALID,916.862,VALID,0,VALID,100,VALID,-0.0169808,VALID,18.035,VALID,136,VALID,1.11736,
2007-07-02, 00:59:00,VALID,916.862,VALID,0,VALID,100,VALID,0,VALID,18.0024,VALID,144,VALID,1.19004,
2007-07-02, 01:00:00,VALID,916.86,VALID,0,VALID,100,VALID,0.0169808,VALID,17.9862,VALID,139,VALID,1.44985,
2007-07-02, 01:01:00,VALID,916.877,VALID,0,VALID,100,VALID,0,VALID,17.9799,VALID,145,VALID,1.17839,
2007-07-02, 01:02:00,VALID,916.873,VALID,0,VALID,99.9939,VALID,0,VALID,17.9635,VALID,143,VALID,1.1108,
2007-07-02, 01:03:00,VALID,916.86,VALID,0,VALID,99.8578,VALID,0,VALID,17.9308,VALID,137,VALID,1.21189,
2007-07-02, 01:04:00,VALID,916.839,VALID,0,VALID,99.6747,VALID,0.0169808,VALID,17.9044,VALID,139,VALID,1.13228,
2007-07-02, 01:05:00,VALID,916.819,VALID,0,VALID,99.573,VALID,0,VALID,17.8884,VALID,136,VALID,1.44903,
2007-07-02, 01:06:00,VALID,916.806,VALID,0,VALID,99.3657,VALID,0.0169808,VALID,17.862,VALID,136,VALID,1.37918,
2007-07-02, 01:07:00,VALID,916.804,VALID,0,VALID,99.1025,VALID,0,VALID,17.8692,VALID,143,VALID,1.05378,
2007-07-02, 01:08:00,VALID,916.771,VALID,0,VALID,98.9029,VALID,-0.0169808,VALID,17.8629,VALID,142,VALID,1.06534,
2007-07-02, 01:09:00,VALID,916.756,VALID,0,VALID,98.7668,VALID,0,VALID,17.8328,VALID,140,VALID,1.14081,
2007-07-02, 01:10:00,VALID,916.735,VALID,0,VALID,98.7719,VALID,0.0169808,VALID,17.8298,VALID,139,VALID,1.16353,
2007-07-02, 01:11:00,VALID,916.712,VALID,0,VALID,98.7388,VALID,0.0339617,VALID,17.8266,VALID,144,VALID,1.1637,
2007-07-02, 01:12:00,VALID,916.693,VALID,0,VALID,98.7159,VALID,0,VALID,17.8101,VALID,145,VALID,1.2311,
2007-07-02, 01:13:00,VALID,916.686,VALID,0,VALID,98.7032,VALID,0.0339617,VALID,17.8101,VALID,148,VALID,1.07465,
2007-07-02, 01:14:00,VALID,916.677,VALID,0,VALID,98.5875,VALID,0,VALID,17.8104,VALID,147,VALID,1.24237,
2007-07-02, 01:15:00,VALID,916.685,VALID,0,VALID,98.4006,VALID,0.0169808,VALID,17.8171,VALID,143,VALID,1.31803,
2007-07-02, 01:16:00,VALID,916.691,VALID,0,VALID,98.3319,VALID,0,VALID,17.8331,VALID,149,VALID,1.1548,
2007-07-02, 01:17:00,VALID,916.693,VALID,0,VALID,98.1984,VALID,0.0169808,VALID,17.8396,VALID,146,VALID,1.23247,
2007-07-02, 01:18:00,VALID,916.696,VALID,0,VALID,98.1246,VALID,0.0339617,VALID,17.8363,VALID,147,VALID,1.50036,
2007-07-02, 01:19:00,VALID,916.698,VALID,0,VALID,98.0178,VALID,0.0169808,VALID,17.8523,VALID,150,VALID,1.48165,
2007-07-02, 01:20:00,VALID,916.672,VALID,0,VALID,97.8487,VALID,0,VALID,17.8882,VALID,148,VALID,1.45052,
2007-07-02, 01:21:00,VALID,916.656,VALID,0,VALID,97.6783,VALID,-0.0169808,VALID,17.9014,VALID,146,VALID,1.43248,
2007-07-02, 01:22:00,VALID,916.619,VALID,0,VALID,97.4939,VALID,0,VALID,17.9375,VALID,143,VALID,1.33794,
2007-07-02, 01:23:00,VALID,916.607,VALID,0,VALID,97.2053,VALID,-0.0169808,VALID,17.9403,VALID,142,VALID,1.43164,
2007-07-02, 01:24:00,VALID,916.594,VALID,0,VALID,96.9306,VALID,0,VALID,17.953,VALID,143,VALID,1.14392,
2007-07-02, 01:25:00,VALID,916.584,VALID,0,VALID,96.6839,VALID,0.0169808,VALID,17.9697,VALID,140,VALID,1.38351,
2007-07-02, 01:26:00,VALID,916.59,VALID,0,VALID,96.4181,VALID,0.0169808,VALID,17.9889,VALID,137,VALID,1.37645,
2007-07-02, 01:27:00,VALID,916.572,VALID,0,VALID,96.1829,VALID,0.0169808,VALID,18.0049,VALID,139,VALID,1.38608,
2007-07-02, 01:28:00,VALID,916.574,VALID,0,VALID,96.0087,VALID,0,VALID,18.0179,VALID,139,VALID,1.39416,
2007-07-02, 01:29:00,VALID,916.574,VALID,0,VALID,95.8663,VALID,0.0169808,VALID,18.0279,VALID,137,VALID,1.32603,
2007-07-02, 01:30:00,VALID,916.579,VALID,0,VALID,95.7607,VALID,0,VALID,18.0605,VALID,135,VALID,1.64879,
2007-07-02, 01:31:00,VALID,916.574,VALID,0,VALID,95.6208,VALID,0,VALID,18.0895,VALID,132,VALID,1.57641,
2007-07-02, 01:32:00,VALID,916.562,VALID,0,VALID,95.6107,VALID,-0.0169808,VALID,18.115,VALID,136,VALID,1.79892,
2007-07-02, 01:33:00,VALID,916.552,VALID,0,VALID,95.6323,VALID,0.0169808,VALID,18.1476,VALID,136,VALID,1.91736,
2007-07-02, 01:34:00,VALID,916.548,VALID,0,VALID,95.6488,VALID,0,VALID,18.1831,VALID,135,VALID,1.81163,
2007-07-02, 01:35:00,VALID,916.529,VALID,0,VALID,95.5636,VALID,0.0339617,VALID,18.1993,VALID,134,VALID,1.68731,
2007-07-02, 01:36:00,VALID,916.51,VALID,0,VALID,95.3589,VALID,0,VALID,18.2157,VALID,137,VALID,1.46639,
2007-07-02, 01:37:00,VALID,916.487,VALID,0,VALID,95.3462,VALID,0.0169808,VALID,18.2157,VALID,139,VALID,1.66673,
2007-07-02, 01:38:00,VALID,916.478,VALID,0,VALID,95.2305,VALID,0,VALID,18.2349,VALID,133,VALID,1.6875,
2007-07-02, 01:39:00,VALID,916.454,VALID,0,VALID,95.1631,VALID,-0.0169808,VALID,18.2546,VALID,138,VALID,1.77035,
2007-07-02, 01:40:00,VALID,916.458,VALID,0,VALID,95.0232,VALID,0.0169808,VALID,18.2544,VALID,140,VALID,1.70089,
2007-07-02, 01:41:00,VALID,916.453,VALID,0,VALID,95.1008,VALID,0,VALID,18.2676,VALID,139,VALID,1.79342,
2007-07-02, 01:42:00,VALID,916.458,VALID,0,VALID,94.9049,VALID,-0.0339617,VALID,18.2708,VALID,135,VALID,1.54863,
2007-07-02, 01:43:00,VALID,916.448,VALID,0,VALID,94.8693,VALID,0,VALID,18.2287,VALID,136,VALID,1.40017,
2007-07-02, 01:44:00,VALID,916.448,VALID,0,VALID,95.191,VALID,0,VALID,18.1768,VALID,141,VALID,1.61301,
2007-07-02, 01:45:00,VALID,916.455,VALID,0,VALID,95.4377,VALID,0,VALID,18.1379,VALID,143,VALID,1.46457,
2007-07-02, 01:46:00,VALID,916.445,VALID,0,VALID,95.7811,VALID,0,VALID,18.0892,VALID,145,VALID,1.63192,
2007-07-02, 01:47:00,VALID,916.446,VALID,0,VALID,95.9476,VALID,0,VALID,18.0538,VALID,145,VALID,1.42738,
2007-07-02, 01:48:00,VALID,916.429,VALID,0,VALID,96.2058,VALID,-0.0339617,VALID,18.0049,VALID,142,VALID,1.4933,
2007-07-02, 01:49:00,VALID,916.41,VALID,0,VALID,96.5593,VALID,0,VALID,17.9598,VALID,142,VALID,1.43413,
2007-07-02, 01:50:00,VALID,916.401,VALID,0,VALID,96.806,VALID,-0.0339617,VALID,17.9241,VALID,138,VALID,1.42695,
2007-07-02, 01:51:00,VALID,916.398,VALID,0,VALID,96.9955,VALID,-0.0169808,VALID,17.9208,VALID,137,VALID,1.40835,
2007-07-02, 01:52:00,VALID,916.402,VALID,0,VALID,97.2956,VALID,-0.0169808,VALID,17.9076,VALID,141,VALID,1.45996,
2007-07-02, 01:53:00,VALID,916.39,VALID,0,VALID,97.6084,VALID,-0.0169808,VALID,17.9368,VALID,137,VALID,1.70273,
2007-07-02, 01:54:00,VALID,916.391,VALID,0,VALID,97.9085,VALID,-0.0169808,VALID,17.969,VALID,136,VALID,1.76669,
2007-07-02, 01:55:00,VALID,916.4,VALID,0,VALID,97.7953,VALID,0,VALID,18.0211,VALID,138,VALID,1.6168,
2007-07-02, 01:56:00,VALID,916.406,VALID,0,VALID,97.8627,VALID,0,VALID,18.0371,VALID,139,VALID,1.60849,
2007-07-02, 01:57:00,VALID,916.405,VALID,0,VALID,97.9708,VALID,0,VALID,18.0503,VALID,137,VALID,1.62674,
2007-07-02, 01:58:00,VALID,916.405,VALID,0,VALID,98.0483,VALID,-0.0169808,VALID,18.0797,VALID,142,VALID,1.56641,
2007-07-02, 01:59:00,VALID,916.388,VALID,0,VALID,97.9364,VALID,-0.0169808,VALID,18.0828,VALID,142,VALID,1.31321,
2007-07-02, 02:00:00,VALID,916.383,VALID,0,VALID,98.0636,VALID,0,VALID,18.0895,VALID,138,VALID,1.45664,
2007-07-02, 02:01:00,VALID,916.392,VALID,0,VALID,98.1335,VALID,0,VALID,18.0987,VALID,135,VALID,1.53038,
2007-07-02, 02:02:00,VALID,916.382,VALID,0,VALID,98.1463,VALID,0,VALID,18.1055,VALID,132,VALID,1.53848,
2007-07-02, 02:03:00,VALID,916.373,VALID,0,VALID,98.1958,VALID,-0.0169808,VALID,18.0858,VALID,131,VALID,1.63895,
2007-07-02, 02:04:00,VALID,916.384,VALID,0,VALID,98.4667,VALID,-0.0169808,VALID,18.0955,VALID,134,VALID,1.68791,
2007-07-02, 02:05:00,VALID,916.389,VALID,0,VALID,98.4044,VALID,-0.0339617,VALID,18.1024,VALID,135,VALID,1.56771,
2007-07-02, 02:06:00,VALID,916.39,VALID,0,VALID,98.4896,VALID,-0.0169808,VALID,18.0962,VALID,128,VALID,1.46836,
2007-07-02, 02:07:00,VALID,916.386,VALID,0,VALID,98.5176,VALID,0,VALID,18.083,VALID,126,VALID,1.36967,
2007-07-02, 02:08:00,VALID,916.38,VALID,0,VALID,98.5099,VALID,-0.0169808,VALID,18.0603,VALID,128,VALID,1.4484,
2007-07-02, 02:09:00,VALID,916.377,VALID,0,VALID,98.5875,VALID,-0.0509425,VALID,18.0311,VALID,128,VALID,1.44585,
2007-07-02, 02:10:00,VALID,916.369,VALID,0,VALID,98.6727,VALID,-0.0339617,VALID,17.9954,VALID,134,VALID,1.38608,
2007-07-02, 02:11:00,VALID,916.372,VALID,0,VALID,98.7833,VALID,-0.0169808,VALID,17.9855,VALID,135,VALID,1.46962,
2007-07-02, 02:12:00,VALID,916.372,VALID,0,VALID,98.9168,VALID,-0.0169808,VALID,17.966,VALID,139,VALID,1.39196,
2007-07-02, 02:13:00,VALID,916.369,VALID,0,VALID,98.8571,VALID,-0.0169808,VALID,17.9697,VALID,144,VALID,1.08958,
2007-07-02, 02:14:00,VALID,916.36,VALID,0,VALID,98.7604,VALID,-0.0169808,VALID,17.9403,VALID,144,VALID,1.1651,
2007-07-02, 02:15:00,VALID,916.34,VALID,0,VALID,98.8838,VALID,0.0169808,VALID,17.9239,VALID,145,VALID,1.25707,
2007-07-02, 02:16:00,VALID,916.35,VALID,0,VALID,98.9944,VALID,-0.0339617,VALID,17.9178,VALID,145,VALID,1.2113,
2007-07-02, 02:17:00,VALID,916.333,VALID,0,VALID,99.0135,VALID,0.0169808,VALID,17.8949,VALID,145,VALID,1.18114,
2007-07-02, 02:18:00,VALID,916.298,VALID,0,VALID,99.1966,VALID,0,VALID,17.8877,VALID,143,VALID,1.41518,
2007-07-02, 02:19:00,VALID,916.289,VALID,0,VALID,99.2729,VALID,0.0169808,VALID,17.9074,VALID,139,VALID,1.32222,
2007-07-02, 02:20:00,VALID,916.281,VALID,0,VALID,99.1534,VALID,0,VALID,17.9081,VALID,144,VALID,1.30558,
2007-07-02, 02:21:00,VALID,916.27,VALID,0,VALID,99.1292,VALID,0,VALID,17.9012,VALID,152,VALID,1.22396,
2007-07-02, 02:22:00,VALID,916.255,VALID,0,VALID,99.1559,VALID,0,VALID,17.888,VALID,150,VALID,1.27511,
2007-07-02, 02:23:00,VALID,916.233,VALID,0,VALID,99.1699,VALID,0,VALID,17.8752,VALID,152,VALID,1.27474,
2007-07-02, 02:24:00,VALID,916.218,VALID,0,VALID,99.3594,VALID,-0.0169808,VALID,17.8917,VALID,146,VALID,1.37334,
2007-07-02, 02:25:00,VALID,916.219,VALID,0,VALID,99.4369,VALID,-0.0339617,VALID,17.9076,VALID,145,VALID,1.15025,
2007-07-02, 02:26:00,VALID,916.201,VALID,0,VALID,99.3823,VALID,-0.0339617,VALID,17.931,VALID,145,VALID,1.04578,
2007-07-02, 02:27:00,VALID,916.195,VALID,0,VALID,99.3454,VALID,0,VALID,17.9466,VALID,142,VALID,0.949855,
2007-07-02, 02:28:00,VALID,916.192,VALID,0,VALID,99.2793,VALID,0.0169808,VALID,17.9693,VALID,144,VALID,1.00614,
2007-07-02, 02:29:00,VALID,916.19,VALID,0,VALID,99.1788,VALID,-0.0339617,VALID,17.982,VALID,135,VALID,1.33485,
2007-07-02, 02:30:00,VALID,916.151,VALID,0,VALID,98.9957,VALID,0,VALID,18.0047,VALID,135,VALID,1.33739,
2007-07-02, 02:31:00,VALID,916.154,VALID,0,VALID,98.8596,VALID,0.0169808,VALID,18.0116,VALID,131,VALID,1.37748,
2007-07-02, 02:32:00,VALID,916.154,VALID,0,VALID,98.6981,VALID,0,VALID,18.0246,VALID,133,VALID,1.27153,
2007-07-02, 02:33:00,VALID,916.151,VALID,0,VALID,98.5087,VALID,-0.0169808,VALID,18.0079,VALID,133,VALID,1.32691,
2007-07-02, 02:34:00,VALID,916.145,VALID,0,VALID,98.3243,VALID,-0.0169808,VALID,18.0017,VALID,135,VALID,1.26283,
2007-07-02, 02:35:00,VALID,916.149,VALID,0,VALID,98.2645,VALID,0.0169808,VALID,17.9755,VALID,144,VALID,1.367,
2007-07-02, 02:36:00,VALID,916.157,VALID,0,VALID,98.351,VALID,0,VALID,17.9466,VALID,146,VALID,1.50223,
2007-07-02, 02:37:00,VALID,916.151,VALID,0,VALID,98.6816,VALID,-0.0169808,VALID,17.9822,VALID,147,VALID,1.51438,
2007-07-02, 02:38:00,VALID,916.136,VALID,0,VALID,98.6193,VALID,0,VALID,18.0179,VALID,144,VALID,1.46341,
2007-07-02, 02:39:00,VALID,916.122,VALID,0,VALID,98.5227,VALID,0.0169808,VALID,18.0404,VALID,146,VALID,1.62926,
2007-07-02, 02:40:00,VALID,916.103,VALID,0,VALID,98.6231,VALID,0,VALID,18.0825,VALID,145,VALID,1.71418,
2007-07-02, 02:41:00,VALID,916.078,VALID,0,VALID,98.4082,VALID,0,VALID,18.1085,VALID,147,VALID,1.51543,
2007-07-02, 02:42:00,VALID,916.065,VALID,0,VALID,98.1081,VALID,-0.0339617,VALID,18.096,VALID,150,VALID,1.45703,
2007-07-02, 02:43:00,VALID,916.061,VALID,0,VALID,98.2963,VALID,-0.0169808,VALID,18.0501,VALID,141,VALID,1.65891,
2007-07-02, 02:44:00,VALID,916.032,VALID,0,VALID,98.468,VALID,0.0169808,VALID,18.0142,VALID,143,VALID,1.34133,
2007-07-02, 02:45:00,VALID,916.017,VALID,0,VALID,98.5875,VALID,0.0169808,VALID,17.9954,VALID,144,VALID,1.26722,
2007-07-02, 02:46:00,VALID,916.012,VALID,0,VALID,98.7083,VALID,-0.0169808,VALID,17.9658,VALID,145,VALID,1.2766,
2007-07-02, 02:47:00,VALID,915.996,VALID,0,VALID,98.8965,VALID,0,VALID,17.9526,VALID,141,VALID,1.47017,
2007-07-02, 02:48:00,VALID,915.99,VALID,0,VALID,99.0936,VALID,0.0169808,VALID,17.9725,VALID,137,VALID,1.49752,
2007-07-02, 02:49:00,VALID,915.993,VALID,0,VALID,99.0262,VALID,0.0169808,VALID,17.9952,VALID,137,VALID,1.66315,
2007-07-02, 02:50:00,VALID,915.976,VALID,0,VALID,99.0504,VALID,0,VALID,18.0214,VALID,136,VALID,1.44438,
2007-07-02, 02:51:00,VALID,915.973,VALID,0,VALID,98.9359,VALID,0,VALID,18.0343,VALID,139,VALID,1.60521,
2007-07-02, 02:52:00,VALID,915.971,VALID,0,VALID,98.7592,VALID,-0.0169808,VALID,18.0374,VALID,135,VALID,1.39355,
2007-07-02, 02:53:00,VALID,915.979,VALID,0,VALID,98.6295,VALID,0,VALID,18.0408,VALID,137,VALID,1.3766,
2007-07-02, 02:54:00,VALID,915.975,VALID,0,VALID,98.4959,VALID,0.0169808,VALID,18.0272,VALID,133,VALID,1.28835,
2007-07-02, 02:55:00,VALID,915.968,VALID,0,VALID,98.2543,VALID,-0.0169808,VALID,18.0049,VALID,119,VALID,1.08092,
2007-07-02, 02:56:00,VALID,915.975,VALID,0,VALID,98.1475,VALID,0.0169808,VALID,17.9496,VALID,119,VALID,0.883662,
2007-07-02, 02:57:00,VALID,915.982,VALID,0,VALID,98.2963,VALID,0,VALID,17.9211,VALID,132,VALID,1.16159,
2007-07-02, 02:58:00,VALID,915.984,VALID,0,VALID,98.3116,VALID,-0.0509425,VALID,17.8819,VALID,141,VALID,1.22452,
2007-07-02, 02:59:00,VALID,915.968,VALID,0,VALID,98.4603,VALID,0,VALID,17.8493,VALID,142,VALID,1.28125,
2007-07-02, 03:00:00,VALID,915.967,VALID,0,VALID,98.7744,VALID,0,VALID,17.8558,VALID,144,VALID,1.47511,
2007-07-02, 03:01:00,VALID,915.96,VALID,0,VALID,98.5506,VALID,0,VALID,17.8687,VALID,140,VALID,1.24582,
2007-07-02, 03:02:00,VALID,915.966,VALID,0,VALID,98.1869,VALID,0,VALID,17.872,VALID,141,VALID,1.39648,
2007-07-02, 03:03:00,VALID,915.959,VALID,0,VALID,97.8779,VALID,0.0169808,VALID,17.8981,VALID,140,VALID,1.27162,
2007-07-02, 03:04:00,VALID,915.956,VALID,0,VALID,97.4418,VALID,-0.0169808,VALID,17.9074,VALID,150,VALID,1.01017,
2007-07-02, 03:05:00,VALID,915.968,VALID,0,VALID,97.1697,VALID,0.0169808,VALID,17.9139,VALID,150,VALID,1.47511,
2007-07-02, 03:06:00,VALID,915.961,VALID,0,VALID,96.8683,VALID,0.0169808,VALID,17.9299,VALID,148,VALID,1.26325,
2007-07-02, 03:07:00,VALID,915.961,VALID,0,VALID,96.6114,VALID,0.0509425,VALID,17.9493,VALID,144,VALID,0.950945,
2007-07-02, 03:08:00,VALID,915.957,VALID,0,VALID,96.3724,VALID,-0.0169808,VALID,17.9593,VALID,144,VALID,0.488281,
2007-07-02, 03:09:00,VALID,915.963,VALID,0,VALID,96.132,VALID,-0.0169808,VALID,17.9373,VALID,144,VALID,0.483259,
2007-07-02, 03:10:00,VALID,915.955,VALID,0,VALID,96.2567,VALID,-0.0169808,VALID,17.9076,VALID,144,VALID,0.506479,
2007-07-02, 03:11:00,VALID,915.97,VALID,0,VALID,96.1422,VALID,0.0169808,VALID,17.8785,VALID,143,VALID,0.482118,
2007-07-02, 03:12:00,VALID,915.969,VALID,0,VALID,96.4423,VALID,-0.0339617,VALID,17.8363,VALID,142,VALID,0.566497,
2007-07-02, 03:13:00,VALID,915.978,VALID,0,VALID,96.6025,VALID,-0.0339617,VALID,17.8268,VALID,142,VALID,0.455669,
2007-07-02, 03:14:00,VALID,915.974,VALID,0,VALID,96.4639,VALID,-0.0339617,VALID,17.7909,VALID,142,VALID,0.0935683,
2007-07-02, 03:15:00,VALID,915.972,VALID,0,VALID,96.2668,VALID,0,VALID,17.7326,VALID,142,VALID,0.353423,
2007-07-02, 03:16:00,VALID,915.959,VALID,0,VALID,96.2617,VALID,0,VALID,17.6675,VALID,145,VALID,0.748698,
2007-07-02, 03:17:00,VALID,915.936,VALID,0,VALID,96.5415,VALID,0.0169808,VALID,17.6348,VALID,148,VALID,0.884527,
2007-07-02, 03:18:00,VALID,915.936,VALID,0,VALID,96.7119,VALID,0,VALID,17.629,VALID,149,VALID,0.735709,
2007-07-02, 03:19:00,VALID,915.947,VALID,0,VALID,96.6852,VALID,-0.0169808,VALID,17.6126,VALID,155,VALID,0.745458,
2007-07-02, 03:20:00,VALID,915.946,VALID,0,VALID,96.5618,VALID,0,VALID,17.5994,VALID,153,VALID,0.608373,
2007-07-02, 03:21:00,VALID,915.951,VALID,0,VALID,96.4105,VALID,0,VALID,17.5934,VALID,150,VALID,0.843936,
2007-07-02, 03:22:00,VALID,915.962,VALID,0,VALID,96.2884,VALID,-0.0339617,VALID,17.5964,VALID,150,VALID,0.720508,
2007-07-02, 03:23:00,VALID,915.964,VALID,0,VALID,96.1079,VALID,-0.0509425,VALID,17.5802,VALID,150,VALID,0.759859,
2007-07-02, 03:24:00,VALID,915.981,VALID,0,VALID,95.9095,VALID,0,VALID,17.5637,VALID,150,VALID,0.581032,
2007-07-02, 03:25:00,VALID,915.972,VALID,0,VALID,95.9082,VALID,0.0169808,VALID,17.5413,VALID,150,VALID,0.637277,
2007-07-02, 03:26:00,VALID,915.975,VALID,0,VALID,96.0049,VALID,0,VALID,17.5218,VALID,150,VALID,0.663881,
2007-07-02, 03:27:00,VALID,915.966,VALID,0,VALID,96.0138,VALID,0,VALID,17.5023,VALID,150,VALID,0.296365,
2007-07-02, 03:28:00,VALID,915.971,VALID,0,VALID,95.8942,VALID,0,VALID,17.4403,VALID,150,VALID,0.224077,
2007-07-02, 03:29:00,VALID,915.963,VALID,0,VALID,96.1244,VALID,-0.0849042,VALID,17.4252,VALID,150,VALID,0.154345,
2007-07-02, 03:30:00,VALID,915.957,VALID,0,VALID,96.0774,VALID,-0.101885,VALID,17.4062,VALID,150,VALID,0,
2007-07-02, 03:31:00,VALID,915.93,VALID,0,VALID,96.1308,VALID,-0.0849042,VALID,17.3379,VALID,150,VALID,0.121911,
2007-07-02, 03:32:00,VALID,915.908,VALID,0,VALID,96.5339,VALID,-0.118866,VALID,17.3022,VALID,150,VALID,0.231889,
2007-07-02, 03:33:00,VALID,915.91,VALID,0,VALID,96.6699,VALID,-0.101885,VALID,17.2763,VALID,150,VALID,0.244531,
2007-07-02, 03:34:00,VALID,915.91,VALID,0,VALID,96.7475,VALID,-0.101885,VALID,17.2538,VALID,150,VALID,0.412791,
2007-07-02, 03:35:00,VALID,915.901,VALID,0,VALID,96.9751,VALID,-0.0849042,VALID,17.2175,VALID,150,VALID,0.525981,
2007-07-02, 03:36:00,VALID,915.908,VALID,0,VALID,97.3769,VALID,-0.0679233,VALID,17.2469,VALID,150,VALID,0.533346,
2007-07-02, 03:37:00,VALID,915.904,VALID,0,VALID,97.3693,VALID,-0.101885,VALID,17.283,VALID,150,VALID,0.547061,
2007-07-02, 03:38:00,VALID,915.908,VALID,0,VALID,97.1074,VALID,-0.0849042,VALID,17.2828,VALID,150,VALID,0.773793,
2007-07-02, 03:39:00,VALID,915.902,VALID,0,VALID,96.9319,VALID,-0.0849042,VALID,17.2598,VALID,149,VALID,0.763139,
2007-07-02, 03:40:00,VALID,915.891,VALID,0,VALID,97.1328,VALID,-0.101885,VALID,17.2469,VALID,148,VALID,0.779474,